"Pseudo-MPEC" for ZTF0DpK

Created 2020 Aug 1 23:07:26 UT using Find_Orb

Click here for an explanation of pseudo-MPECs

 
 Astrometry: 
     ZTF0DpK  C2020 07 31.33104222 41 14.58 +10 56 43.4    ~7V9b 14.91RUNEOCPI41
     ZTF0DpK  C2020 07 31.33138922 41 05.16 +10 55 03.4    ~7V9b 14.91RUNEOCPI41
     ZTF0DpK  C2020 07 31.33151622 41 01.94 +10 54 28.9    ~7V9b 14.85RUNEOCPI41
     ZTF0DpK  C2020 07 31.33186322 40 52.50 +10 52 48.8    ~7V9b 14.85RUNEOCPI41
     ZTF0DpK  C2020 07 31.41420122 10 45.01 +05 23 22.0    ~7VB7 15.02RUNEOCPI41
     ZTF0DpK  C2020 07 31.41454922 10 38.87 +05 22 13.4    ~7VB7 15.02RUNEOCPI41
     ZTF0DpK  C2020 07 31.41466422 10 36.72 +05 21 50.2    ~7VB7 15.03RUNEOCPI41
     ZTF0DpK  C2020 07 31.41501222 10 30.63 +05 20 41.6    ~7VB7 15.03RUNEOCPI41
     ZTF0DpK  C2020 07 31.41513922 10 28.49 +05 20 16.9    ~7VB7 15.01RUNEOCPI41
     ZTF0DpK  C2020 07 31.41548622 10 22.38 +05 19 08.5    ~7VB7 15.01RUNEOCPI41
     ZTF0DpK  C2020 07 31.41560222 10 20.31 +05 18 45.4    ~7VB7 15.01RUNEOCPI41
     ZTF0DpK  C2020 07 31.41594922 10 14.26 +05 17 37.3    ~7VB7 15.01RUNEOCPI41
     ZTF0DpK  C2020 07 31.41606522 10 12.11 +05 17 13.6    ~7VB7 15.03RUNEOCPI41
     ZTF0DpK  C2020 07 31.41641222 10 06.00 +05 16 05.5    ~7VB7 15.03RUNEOCPI41
     ZTF0DpK  C2020 07 31sO8WdP9+pcee:V/h8EH+W10wClRKn4d%x:r*d[o);c_J+QoT6L?G246
     ZTF0DpK  C2020 07 31$9V[2')Fk.E_)IaRRk!vv/gOAstrometry4E'\9/:/q_IwBL8tYn246
     ZTF0DpK  C2020 07 31j$ul!q!hM*VTP]60QTtkk*ACm[LPkQ%7,PlN#w*W'AHkLVeqN1Uo246
     ZTF0DpK  C2020 07 31T[c5\i?'@Dt0TRa8/B4W4`hyXd32oOT+M29LP?:NRVfbxsfaafsX246
     ZTF0DpK  C2020 07 31P,DIUM#`E*L^VXWq,/'rK%MEl4`2-rme#CB=iMj']F_:=EJxru$E246
     ZTF0DpK  C2020 07 31tJY56@-Rg$rDGnbjuRrYR1sJWwHOMLt!P-6f'xsnVk9W_UH5a@n9246
     ZTF0DpK KC2020 07 31QAcb?27F8eGir8/y6(HFsa#3pKHWEppQ7490F+V8p$'i7h,s6RmQA17
     ZTF0DpK KC2020 07 31/Z![\XZ,)1Cq%T=00Uh7I*(lj!\vHh,\iA!$_gHVlsVf(6Us`9!RA17
     ZTF0DpK KC2020 07 31^WhZ%VfbF-Zc_aPa=B=jR)Lh8F(,!4j2#J8Y7TYxh5aMv7hm3+7?A17
     ZTF0DpK KC2020 07 31id.'d6g?KWR(\D;MxuKfd3na$\.lBF11dsl(0ZG5kS=MwXO-Lpr9A17
     ZTF0DpK KC2020 07 31d3qA=BAO-_Hg2ZiG%Bredacted;StQSI8Y?dL]wx8s;ZnDhTmBAYG34
     ZTF0DpK KC2020 07 310[[-y4'*B*CUJ-(a_Zy2O4tV4AxVT@[5M5J.sl9p!=X)X==X)mFcG34
     ZTF0DpK KC2020 07 31gxb.bTNxiVgm`_WWaN5Da,?5/exPAP8A^TugRCs2aZKskf!Zebf'G34
     ZTF0DpK KC2020 07 31[UjStA^2bB@7/MclickV,FhHZ9AKZv+E9qLtLpuZjp3:vJJIZVpHG34
     ZTF0DpK KC2020 07 31$PyPPaui3Gc9=8sack=v`9F0c'@3)ycyR?)('$qn%5-v'[]jff:gL01
     ZTF0DpK KC2020 07 31P#Hq6+JS_Mh+.mVrk/oMjR=qS*]Gq4$s_n$/GcetRJ(E'*qLnfy^L01
     ZTF0DpK KC2020 07 31sq/!GML5QENE#7Fgu?MW.b540VhHO_XU`Y\fngevfh32U5aN?l$[L01
     ZTF0DpK KC2020 07 31\9k8'9gfKv*2FRy1N?S;Qc+m7G2^m@?8XQyf#OFaaFn:1vYd8dMCL01
     ZTF0DpK KC2020 07 31W?DiWJ6wiN/CZbc77/xxUFl@CK+[52$G+jbM'_p/H:i0#ZGg3yvYL01
     ZTF0DpK KC2020 07 31k=pH],4;S@w(kXB;hjU1U3l%VP^!m;rox$*:1$2.,Wg(r/M(t(of104
     ZTF0DpK KC2020 07 31^IE:y^my4bQlFEWJWe14,9a;fijH^V--VG`n=SG+pxwDTA!tRjEQ104
     ZTF0DpK KC2020 07 31vftf42vAs,CY:3GF)CyDRtyLC,Lt(lHHZyS+y3`9Fa9)a]\_i1_;C77
     ZTF0DpK KC2020 07 317(GcW*/%,6`+l9kkQ^8xcT59$1RheresH5@fl$uq1e1W%a+8;f+mC77
     ZTF0DpK KC2020 07 31O9(OR``_YctSOfX$7ij#_!(GXg9s-xf]kHfD.']AjWtswRw4uAk[104
     ZTF0DpK KC2020 07 31CM\UoON(n9sq$-TEQ1?JbL!w!CB6@prue#g*q'#3aukn)6yo/#W5104
     ZTF0DpK KC2020 07 31$.7!QMuGJ2'y`xZceA8VivFBkVEHE$W\Ybd//dYAfor@at9/CYP6C77
     ZTF0DpK KC2020 07 315t26WFb%k@6NyxlbaVB\v]1VP@y/J5yD!5;X[W8Lw(TP[F9BV5%R104
     ZTF0DpK KC2020 07 31L6b0bfZQe%St15Q#;N,pXgpq/M,hYXXB5h^!I5f(B@.US1p[=@9*C77
     ZTF0DpK KC2020 07 31k1nq\QP;Me)e@R!,4w6+[i=+J4d?qO3iFItvH;H35ThAifGYq\IhC77
     ZTF0DpK KC2020 07 31hM#H7v?fc.32(c+*YSna`j*kdxNg@p:w,s]L\E9I'#T26a*^jN-q595
     ZTF0DpK KC2020 07 31tKIH8CrRAj^:MeQL$TS[.eqIo0K:8Xe2)44AW,NRvfm#QxO0R]k:595
     ZTF0DpK KC2020 07 31H=crM4feGQRP?fLPsT)ItP'LNV\Zm'tpD]hKq.79CIX/O.\]k`WuK38
     ZTF0DpK KC2020 07 31g)Iw?)kGWaE:)qf7b^P+-bn6JQs7Q7X4;U.xF/V-TpjK6[gu1r\M595
     ZTF0DpK KC2020 07 31gsxrF:cQ+AfPNyw]/^7%O=0^kvWMIx!JGo3x!.!^lT5)ctuC#89gK38
     ZTF0DpK KC2020 07 31v*=-WA_XB/Y8v1m^Pnwv#2f`!/cm+C,H+dCjvfT/$*@qiJ?fGBx'595
     ZTF0DpK KC2020 07 31c_\LOO-L[0WySO?V^w`%H)OhoPdHW'-mTcB)KI[rh(Gb8,9Seb\:K87
     ZTF0DpK KC2020 07 31*REHVPaJ*$FgOo_dvWSXYoKe.$*p`xT8C#lS-J]2p$afcLuYNTNSK87
     ZTF0DpK KC2020 07 31s\W#-!a0EdWy=d#Tvs2^9Pd/KC8%KkR-IUnA0VQ/t..8M1FI_YaxK38
     ZTF0DpK KC2020 07 31/Kb4HmskE[nTO5d+AtO(rnrSQg+:9G(;Gu5m@patEQ9+r3e!o7X=K87
     ZTF0DpK KC2020 07 31/^p;KV/W84%3IL.sg\u#6bBlXYJuC.F83VG,39@l'C5`K4$G8o/ZK63
     ZTF0DpK KC2020 07 31aAn1=7s=),sPl`DfSexplanationK/K`K11`j2x_v2=Z14K^+TD$K38
     ZTF0DpK KC2020 07 31_7?)#rT3w:8c%xSlPlBcF_w1NIoY#98b*Wkb)EOZ9gCsfP?vaYBWK63
     ZTF0DpK KC2020 07 31S(ZHb]TF1k.nk]N^%L1kPaykuul,OtfQ6Imj#nUIIn:RR?$dnKY:K63
     ZTF0DpK KC2020 08 01U`,^Zr5Kv);yQKH-tpGLI@Pg^15dj)dyiq]JCMOsVjsa;unjlppoX31
     ZTF0DpK KC2020 08 016!6O2%9V/WVx(mL@QEPvr77H,[nR=lSSA?X4uAl+@tyBsNJJL;;tX31
     ZTF0DpK KC2020 08 01GwB#)_p\8k!KZPlL\f[cU.7UXa'tVuyxy\^IP:sUNJ,hUAQ0Oh?bX31
     ZTF0DpK KC2020 08 01)F6,V1_U0B9Y:CNhy8!Wxifsuv=odGo-L2l'vht0]=8KpncqK;;kX31
     ZTF0DpK KC2020 08 014jAj-6U.,/;Xub_L*Y\gPt8GBUrnpg9^W[O?q^M#mC[C+to5-QW^X31
     ZTF0DpK KC2020 08 01%o_G%1oOy/40j=O;UW?HTE+O:t6EQN$!3yuUx^Cb(`8D;I=Iq=.XX31
     ZTF0DpK KC2020 08 01(7W4e\5Sb;R7J*PnlX.^J-?B0k_kqG\O[HeJUMe-5kn]]Mlv)p]#H36
     ZTF0DpK KC2020 08 018nHQ29I3PxHx=rSj7:b'+WdB^VALVDJlp\`sp6qrhhkuX(itctQNH36
     ZTF0DpK KC2020 08 01p5^iWeEU)oS+LU,wNte?Iw!8re2Im\9QKJppY?[SKQZZ]W.WC'@]H36
     ZTF0DpK KC2020 08 018H*og/lYq=lq\($aY^v=*t92UYoMLq2BfSQ@Ed7V.y^g:K6[Au/ZE23
     ZTF0DpK KC2020 08 01an0lt[X!1GA01YMgAL.@j41%/`hjG-81Sfl1(mvO4,`GY'i_SwZwE23
     ZTF0DpK KC2020 08 01eEVu+E?,,1=_wcJYVF.D,Hlf)[%]2_4R^kMijlOv#F5T/93?_udEE23
     ZTF0DpK KC2020 08 01.91418520 43 25.81 -11 31 57.7    ~81Mq 18.6 GVNEOCPJ95
     ZTF0DpK KC2020 08 01.91959420 43 21.65 -11 32 39.4    ~81Mq 18.8 GVNEOCPJ95
     ZTF0DpK KC2020 08 01.92844720 43 14.82 -11 33 46.1    ~81Mq 18.6 GVNEOCPJ95
     ZTF0DpK KC2020 08 01.93549220 43 09.43 -11 34 38.8    ~81Mq 18.2 GVNEOCPJ95

Station data:
(104) San Marcello Pistoiese  (N44.063037 E10.804200)  Italy. 0.40-m f/5
   reflector.
(246) Klet Observatory-KLENOT  (N48.863293 E14.288100)  Czech Republic.
   1.06-m KLENOT telescope.
(595) Farra d'Isonzo  (N45.915734 E13.525780)  Italy.  Observers L.
   Bittesini, F. Fabris, E. Pettarin, F. Piani. Measurer E. Pettarin. 0.30-m
   f/4.5 reflector + CCD.
(A17) Guidestar Observatory, Weinheim  (N49.545393 E8.681520)  Germany.
(C77) Bernezzo Observatory  (N44.385250 E7.453500)  Italy.
(E23) Arcadia  (S33.621199 E151.071190)  Australia/NSW.
(G34) Oberfrauendorf  (N50.860063 E13.701500)  Germany.
(H36) Sandlot Observatory, Scranton  (N38.797693 W95.706400)  US/Kansas.
   Observer G. Hug. 0.56-m reflector + CCD.
(I41) Palomar Mountain--ZTF  (N33.357340 W116.859780)  US/California. 1.2-m
   f/2.44 Oschin Schmidt + CCD.
(J95) Great Shefford  (N51.474969 W1.447003)  UK.  Observer P. Birtwhistle.
   0.40-m f/6.0 Schmidt-Cassegrain + CCD.
(K38) M57 Observatory, Saltrio  (N45.873785 E8.918240)  Italy.
(K63) G. Pascoli Observatory, Castelvecchio Pascoli  (N44.082410 E10.462000)
   Italy.
(K87) Dettelbach Vineyard Observatory  (N49.807693 E10.170110)  Germany.
(L01) Višnjan Observatory, Tičan  (N45.290900 E13.749300)  Croatia.
   Observers K. Korlević, E. Pettarin. Measurer E. Pettarin. 1.0-m f/2.9
   reflector + CCD.
(X31) Galileo Galilei Observatory, Oro Verde  (S31.823022 W60.520660)
   Argentina.

Orbital elements:  ZTF0DpK
   Perihelion 2020 Jun 14.224942 +/- 0.00621 TT =  5:23:55 (JD 2459014.724942)
Epoch 2020 Aug  1.0 TT = JDT 2459062.5   Earth MOID: 0.0010   Ve: 0.0005
M  15.05174726 +/- 0.015            Me: 0.0712   Ma: 0.0346   AutoNEOCP
n   0.31505450 +/- 0.000275         Peri.  261.80599 +/- 0.00025
a   2.13900723 +/- 0.00125          Node   307.22825 +/- 0.00006
e   0.7637988 +/- 0.000166          Incl.    3.49814 +/- 0.0008
P   3.13                   H 26.1   G  0.15   U  7.2  
q 0.50523594 +/- 6.13e-5    Q 3.77277851 +/- 0.00255
From 73 observations 2020 July 31-Aug. 1 (38.5 hr); mean residual 0".53
Residuals in arcseconds: 
200731 I41  1.4-  .80-    200731 G34  .02-  .40-    200731 K87  .82-  .32+    
200731 I41  1.5-  .88-    200731 G34  .18-  .12+    200731 K38  .00   .41-    
200731 I41  1.7+  1.2+    200731 G34  .47+  .26-    200731 K87  .00   .27-    
200731 I41  .97+  .76+    200731 L01  .12+  .07+    200731 K63  .05+  .48+    
200731 I41  .16+  .30-    200731 L01  .20+  .00     200731 K38  .12+  .10+    
200731 I41  .31+  .02+    200731 L01  .01+  .06+    200731 K63  .26-  .02-    
200731 I41  1.5-  .43-    200731 L01  .02-  .19-    200731 K63  .01-  .07-    
200731 I41  .78-  .25-    200731 L01  .00   .12-    200801 X31  .74-  .23-    
200731 I41  .66+  .13+    200731 104  .16+  .15+    200801 X31  .77-  .50-    
200731 I41  .58+  .16+    200731 104  .50+  .11+    200801 X31  .50-  .54-    
200731 I41  .11+  .09-    200731 C77  .97+  1.6+    200801 X31  .45-  .22-    
200731 I41  .72+  .11+    200731 C77  .77-  .26-    200801 X31  .51-  .13-    
200731 I41  1.0-  .79-    200731 104  .09+  .28+    200801 X31  .51-  .13+    
200731 I41  1.5-  .74-    200731 104  .39+  .13+    200801 H36  .24-  .29-    
200731 246  .15-  .26-    200731 C77  .50-  1.1+    200801 H36  .59-  .13-    
200731 246  .13-  1.0-    200731 104  .01-  .05-    200801 H36  .06+  .00     
200731 246  .91+  .66+    200731 C77  .17-  .59+    200801 E23  .02-  .34+    
200731 246  .33+  .20-    200731 C77  .54-  .93-    200801 E23  .13-  .22+    
200731 246  .78+  .31+    200731 595  .72+  .61+    200801 E23  .05-  .36+    
200731 246  .40-  .05-    200731 595  .42+  .23+    200801 J95  .05+  .60+    
200731 A17  .27+  .08-    200731 K38  .22+  .20-    200801 J95  .31+  .06-    
200731 A17  .22+  .49+    200731 595  .19+  .10-    200801 J95  .07-  .20-    
200731 A17  .02+  .19+    200731 K38  .06+  .14-    200801 J95  .16-  .48-    
200731 A17  .80+  .28+    200731 595  .06+  .54+    
